Jefferson, NC

4:44 AM EST on November 22, 2019 (GMT -0500)
Ashe County

Weather History for KGEV - September, 2019

Change the Weather History Date:

Friday, September 20, 2019

  Actual Average Record
Temperature  
Mean Temperature 58 °F -  
Max Temperature 72 °F 73 °F 82 °F (1978)
Min Temperature 44 °F 51 °F 40 °F (1984)
Degree Days  
Heating Degree Days 7    
Growing Degree Days 8 (Base 50)    
Moisture  
Dew Point 53 °F    
Average Humidity 88    
Maximum Humidity 100    
Minimum Humidity 67    
Precipitation  
Precipitation 0.00 in - - ()
Sea Level Pressure  
Sea Level Pressure 30.35 in    
Wind  
Wind Speed 1 mph ()    
Max Wind Speed 6 mph    
Max Gust Speed -    
Visibility 8.5 miles    
Events Fog    
Averages and records for this station are not official NWS values.
T = Trace of Precipitation, MM = Missing Value Source: Averaged Metar Reports

Daily Weather History Graph

Daily Weather History Graph

Search for Another Location

Airport or City:

Astronomy

Sep. 20, 2019 Rise Set
Actual Time 7:11 AM EDT 7:25 PM EDT
Civil Twilight 6:46 AM EDT 7:51 PM EDT
Nautical Twilight 6:15 AM EDT 8:21 PM EDT
Astronomical Twilight 5:45 AM EDT 8:52 PM EDT
Moon 11:24 PM EDT (9/20) 1:05 PM EDT (9/20)
Length of Visible Light 13h 05m
Length of Day
12h 14m
Waning Gibbous, 65% of the Moon is Illuminated
Sep 20
Waning Gibbous
Sep 21
Last Quarter
Sep 28
New
Oct 5
First Quarter
Oct 13
Full

Hourly Weather History & Observations

Time (EDT) Temp. Windchill Dew Point Humidity Pressure Visibility Wind Dir Wind Speed Gust Speed Precip Events Conditions
12:15 AM 48.7 °F - 48.7 °F 100% 30.34 in 0.2 mi Calm Calm - N/A Fog Fog
12:35 AM 48.6 °F - 48.6 °F 100% 30.34 in 0.2 mi Calm Calm - N/A Fog Fog
12:55 AM 50.2 °F - 49.8 °F 99% 30.34 in 10.0 mi Calm Calm - N/A   Scattered Clouds
1:15 AM 50.4 °F - 50.0 °F 99% 30.34 in 10.0 mi Calm Calm - N/A   Clear
1:35 AM 49.5 °F - 49.5 °F 100% 30.34 in 2.0 mi Calm Calm - N/A   Clear
1:55 AM 49.5 °F - 49.3 °F 99% 30.34 in 10.0 mi WSW 3.5 mph - N/A   Clear
2:15 AM 50.2 °F - 48.9 °F 95% 30.34 in 10.0 mi Calm Calm - N/A   Clear
2:35 AM 48.9 °F - 48.0 °F 97% 30.34 in 10.0 mi Calm Calm - N/A   Clear
2:55 AM 48.7 °F - 47.8 °F 97% 30.34 in 10.0 mi Calm Calm - N/A   Clear
3:15 AM 46.8 °F - 46.4 °F 99% 30.34 in 10.0 mi Calm Calm - N/A   Clear
3:35 AM 45.9 °F 44.6 °F 45.1 °F 97% 30.34 in 2.5 mi WSW 3.5 mph - N/A   Scattered Clouds
3:55 AM 44.8 °F - 44.8 °F 100% 30.33 in 1.0 mi Calm Calm - N/A   Mostly Cloudy
4:15 AM 45.9 °F - 45.9 °F 100% 30.33 in 0.5 mi Calm Calm - N/A Fog Fog
4:35 AM 46.8 °F - 46.8 °F 100% 30.33 in 10.0 mi Calm Calm - N/A   Scattered Clouds
4:55 AM 45.5 °F - 45.5 °F 100% 30.33 in 7.0 mi Calm Calm - N/A   Clear
5:15 AM 44.4 °F - 44.4 °F 100% 30.34 in 3.0 mi Calm Calm - N/A   Mostly Cloudy
5:35 AM 46.2 °F - 46.2 °F 100% 30.34 in 10.0 mi Calm Calm - N/A   Overcast
5:55 AM 45.0 °F - 45.0 °F 100% 30.34 in 1.5 mi Calm Calm - N/A   Overcast
6:15 AM 46.9 °F - 46.9 °F 100% 30.34 in 10.0 mi Calm Calm - N/A   Mostly Cloudy
6:35 AM 46.4 °F - 46.2 °F 99% 30.34 in 10.0 mi Calm Calm - N/A   Scattered Clouds
6:55 AM 45.1 °F - 44.8 °F 99% 30.35 in 1.5 mi Calm Calm - N/A   Scattered Clouds
7:15 AM 47.1 °F - 46.6 °F 98% 30.35 in 10.0 mi Calm Calm - N/A   Clear
7:35 AM 46.4 °F - 45.7 °F 97% 30.36 in 5.0 mi Calm Calm - N/A   Clear
7:55 AM 47.1 °F - 46.8 °F 99% 30.36 in 1.8 mi Calm Calm - N/A   Mist
8:15 AM 47.1 °F - 46.6 °F 98% 30.37 in 1.8 mi Calm Calm - N/A   Scattered Clouds
8:35 AM 49.3 °F - 47.8 °F 95% 30.37 in 10.0 mi Calm Calm - N/A   Scattered Clouds
8:55 AM 51.1 °F - 49.8 °F 95% 30.37 in 7.0 mi Calm Calm - N/A   Clear
9:15 AM 52.2 °F - 50.7 °F 95% 30.38 in 10.0 mi Calm Calm - N/A   Clear
9:35 AM 53.1 °F - 49.8 °F 89% 30.38 in 10.0 mi Calm Calm - N/A   Clear
9:55 AM 53.8 °F - 50.4 °F 88% 30.38 in 10.0 mi Calm Calm - N/A   Clear
10:15 AM 55.6 °F - 51.4 °F 86% 30.38 in 10.0 mi Calm Calm - N/A   Clear
10:35 AM 56.8 °F - 51.4 °F 82% 30.38 in 10.0 mi Calm Calm - N/A   Clear
10:55 AM 58.3 °F - 52.2 °F 80% 30.38 in 10.0 mi Calm Calm - N/A   Clear
11:15 AM 60.4 °F - 52.5 °F 75% 30.38 in 10.0 mi Calm Calm - N/A   Clear
11:35 AM 63.3 °F - 54.7 °F 73% 30.38 in 10.0 mi Calm Calm - N/A   Clear
11:55 AM 63.1 °F - 53.8 °F 71% 30.38 in 10.0 mi WSW 3.5 mph - N/A   Clear
12:35 PM 66.4 °F - 56.7 °F 71% 30.37 in 10.0 mi WSW 3.5 mph - N/A   Mostly Cloudy
12:55 PM 67.1 °F - 57.0 °F 70% 30.37 in 10.0 mi Calm Calm - N/A   Overcast
1:15 PM 67.5 °F - 57.9 °F 71% 30.36 in 10.0 mi WSW 3.5 mph - N/A   Mostly Cloudy
1:35 PM 66.7 °F - 57.4 °F 72% 30.36 in 10.0 mi WSW 3.5 mph - N/A   Mostly Cloudy
1:55 PM 69.1 °F - 58.5 °F 69% 30.35 in 10.0 mi Calm Calm - N/A   Scattered Clouds
2:15 PM 72.0 °F - 60.6 °F 67% 30.35 in 10.0 mi Calm Calm - N/A   Mostly Cloudy
2:35 PM 70.7 °F - 59.7 °F 68% 30.34 in 10.0 mi Calm Calm - N/A   Overcast
2:55 PM 69.4 °F - 59.4 °F 70% 30.34 in 10.0 mi WSW 3.5 mph - N/A   Overcast
3:15 PM 68.7 °F - 59.2 °F 72% 30.33 in 10.0 mi WSW 4.6 mph - N/A   Mostly Cloudy
3:35 PM 68.2 °F - 59.2 °F 73% 30.32 in 10.0 mi WSW 3.5 mph - N/A   Mostly Cloudy
3:55 PM 67.6 °F - 58.6 °F 73% 30.33 in 10.0 mi WSW 5.8 mph - N/A   Overcast
4:15 PM 66.6 °F - 58.8 °F 76% 30.33 in 10.0 mi WSW 4.6 mph - N/A   Mostly Cloudy
4:35 PM 66.6 °F - 58.6 °F 76% 30.33 in 10.0 mi WSW 4.6 mph - N/A   Mostly Cloudy
4:55 PM 68.2 °F - 59.2 °F 73% 30.33 in 10.0 mi WSW 3.5 mph - N/A   Mostly Cloudy
5:15 PM 68.9 °F - 59.2 °F 71% 30.33 in 10.0 mi WSW 4.6 mph - N/A   Overcast
5:35 PM 67.3 °F - 59.0 °F 75% 30.33 in 10.0 mi WSW 3.5 mph - N/A   Mostly Cloudy
5:55 PM 66.4 °F - 58.8 °F 77% 30.33 in 10.0 mi WSW 3.5 mph - N/A   Clear
6:15 PM 66.2 °F - 59.2 °F 78% 30.34 in 10.0 mi WSW 3.5 mph - N/A   Clear
6:35 PM 64.9 °F - 59.0 °F 81% 30.34 in 10.0 mi WSW 3.5 mph - N/A   Clear
6:55 PM 63.9 °F - 58.5 °F 83% 30.34 in 10.0 mi Calm Calm - N/A   Clear
7:35 PM 61.7 °F - 58.1 °F 88% 30.34 in 10.0 mi Calm Calm - N/A   Mostly Cloudy
7:55 PM 61.0 °F - 57.9 °F 90% 30.35 in 10.0 mi WSW 3.5 mph - N/A   Scattered Clouds
8:15 PM 61.0 °F - 57.7 °F 89% 30.35 in 10.0 mi Calm Calm - N/A   Clear
8:35 PM 60.8 °F - 57.6 °F 89% 30.35 in 10.0 mi Calm Calm - N/A   Clear
8:55 PM 60.1 °F - 57.4 °F 91% 30.35 in 10.0 mi Calm Calm - N/A   Clear
9:15 PM 60.8 °F - 57.6 °F 89% 30.36 in 10.0 mi Calm Calm - N/A   Clear
9:35 PM 60.3 °F - 57.4 °F 90% 30.36 in 10.0 mi Calm Calm - N/A   Clear
9:55 PM 60.3 °F - 57.6 °F 91% 30.37 in 10.0 mi Calm Calm - N/A   Clear
10:15 PM 59.4 °F - 57.6 °F 94% 30.37 in 10.0 mi Calm Calm - N/A   Clear
10:35 PM 60.3 °F - 57.7 °F 91% 30.37 in 10.0 mi Calm Calm - N/A   Clear
10:55 PM 59.9 °F - 57.7 °F 93% 30.37 in 10.0 mi Calm Calm - N/A   Clear
11:15 PM 59.9 °F - 58.1 °F 94% 30.37 in 10.0 mi Calm Calm - N/A   Clear
11:35 PM 59.7 °F - 57.7 °F 93% 30.37 in 10.0 mi Calm Calm - N/A   Clear
11:55 PM 59.5 °F - 57.4 °F 93% 30.37 in 10.0 mi Calm Calm - N/A   Clear